Terug naar catalogus

HIMAWARI 7

ActiefWeerGEO
NORAD 28937·PAYLOAD·🇯🇵 Japan

Gelanceerd Feb 18, 2006 vanaf Tanegashima Space Center

Loading…

TLE

VersSource: Space-Track

Epoch: Sep 14, 2026, 11:42 UTC

1 28937U 06004A   26257.48807942 -.00000088  00000-0  00000-0 0  9990
2 28937   6.0043  71.9377 0010233 159.2465 218.5692  0.99074949 75117

Volg HIMAWARI 7 in realtime met AllMySat

Download on the App Store